Total_Precipitation_Accumulation
2.42 2.52 2.50 2.44 2.43 2.37 2.44 2.55 2.63 2.51 2.23 1.96 1.90 1.79 1.82 1.85 2.04 1.70 1.69 1.89 1.68 1.56 1.50 1.45 1.41 1.32 1.28 1.28 1.28 1.30 1.31 1.37 1.47 1.57 1.66 1.76 1.91 2.12
2.15 2.31 2.36 2.35 2.46 2.51 2.60 2.63 2.64 2.64 2.45 2.06 1.96 1.87 1.87 1.80 2.11 1.81 1.77 1.88 1.64 1.45 1.33 1.25 1.21 1.15 1.12 1.15 1.17 1.21 1.21 1.18 1.19 1.26 1.35 1.45 1.57 1.71
1.97 2.05 2.13 2.20 2.33 2.37 2.44 2.46 2.54 2.57 2.49 2.17 2.04 2.03 2.04 1.99 2.02 1.89 1.79 1.73 1.59 1.47 1.28 1.16 1.12 1.08 1.05 1.08 1.11 1.10 1.14 1.15 1.16 1.17 1.20 1.27 1.34 1.40
1.82 1.88 1.93 1.96 2.03 2.00 2.09 2.14 2.18 2.27 2.28 2.26 2.23 2.17 2.16 2.10 2.02 1.84 1.59 1.40 1.36 1.36 1.22 1.15 1.11 1.10 1.12 1.15 1.14 1.13 1.10 1.06 1.06 1.10 1.15 1.14 1.15 1.22
1.57 1.62 1.67 1.71 1.67 1.62 1.67 1.68 1.79 1.91 2.11 2.14 2.08 2.15 2.12 2.13 2.23 1.95 1.71 1.66 1.27 1.22 1.15 1.13 1.12 1.08 1.07 1.06 1.04 1.03 1.00 0.93 0.86 0.88 0.96 1.06 1.09 1.06
1.32 1.36 1.37 1.33 1.30 1.34 1.35 1.41 1.56 1.82 2.01 2.04 1.91 1.92 1.97 1.97 2.16 2.05 1.93 1.81 1.54 1.15 1.10 1.02 1.03 1.03 1.01 0.93 0.89 0.86 0.87 0.88 0.88 0.85 0.86 0.87 0.91 0.93
1.19 1.17 1.12 1.11 1.14 1.12 1.05 1.17 1.41 1.68 1.80 1.86 1.85 1.80 1.77 1.84 1.89 1.80 1.79 1.81 1.71 1.40 1.28 1.05 0.94 0.98 1.01 0.99 0.94 0.84 0.77 0.75 0.78 0.79 0.79 0.80 0.83 0.87
1.19 1.09 1.00 0.95 0.93 0.94 0.95 1.03 1.18 1.32 1.45 1.59 1.64 1.65 1.64 1.69 1.79 1.79 1.79 1.82 1.78 1.54 1.51 1.34 1.10 1.16 1.10 1.01 0.96 0.86 0.81 0.79 0.77 0.78 0.82 0.83 0.82 0.83
1.21 1.21 1.04 0.87 0.95 0.98 1.00 1.04 1.06 1.12 1.22 1.40 1.52 1.50 1.56 1.70 1.90 1.87 1.88 1.86 1.76 1.59 1.67 1.62 1.43 1.36 1.10 0.95 0.97 0.88 0.82 0.78 0.77 0.76 0.79 0.82 0.84 0.85
1.11 1.13 1.14 1.09 1.02 1.06 1.03 1.05 1.07 1.11 1.17 1.25 1.40 1.45 1.44 1.57 1.79 1.81 1.84 1.83 1.73 1.62 1.70 1.75 1.47 1.38 1.09 1.11 1.01 0.85 0.78 0.78 0.75 0.69 0.70 0.73 0.81 0.86
0.97 0.94 0.92 0.93 0.93 1.01 1.09 1.18 1.17 1.13 1.00 1.06 1.12 1.22 1.35 1.44 1.53 1.61 1.75 1.91 1.82 1.64 1.62 1.71 1.55 1.42 1.26 1.27 1.11 0.93 0.85 0.87 0.82 0.68 0.62 0.62 0.67 0.79
0.92 0.88 0.84 0.78 0.75 0.74 0.85 1.07 1.20 1.13 1.06 1.06 1.18 1.33 1.42 1.47 1.46 1.52 1.68 1.82 1.80 1.80 1.60 1.65 1.60 1.55 1.51 1.29 1.18 1.12 1.09 1.11 1.01 0.82 0.67 0.63 0.66 0.73
0.86 0.85 0.82 0.71 0.62 0.63 0.73 0.91 0.99 0.98 1.08 1.31 1.51 1.57 1.57 1.52 1.42 1.40 1.56 1.70 1.76 1.75 1.53 1.59 1.64 1.67 1.73 1.49 1.20 1.20 1.27 1.34 1.29 1.09 0.88 0.78 0.75 0.73
0.83 0.82 0.77 0.69 0.60 0.63 0.68 0.79 0.84 0.96 1.21 1.48 1.63 1.59 1.40 1.26 1.25 1.25 1.33 1.49 1.60 1.58 1.49 1.54 1.65 1.70 1.68 1.55 1.35 1.26 1.37 1.48 1.50 1.39 1.16 1.03 0.97 0.90
0.72 0.72 0.69 0.70 0.71 0.79 0.84 0.85 0.92 1.12 1.34 1.45 1.46 1.36 1.24 1.19 1.23 1.28 1.27 1.41 1.48 1.35 1.24 1.28 1.46 1.56 1.66 1.59 1.51 1.53 1.60 1.72 1.68 1.63 1.49 1.25 1.10 1.05
0.70 0.76 0.82 0.89 0.91 0.93 0.98 1.06 1.12 1.20 1.22 1.30 1.29 1.24 1.18 1.21 1.25 1.22 1.26 1.38 1.51 1.43 1.29 1.25 1.34 1.50 1.59 1.55 1.62 1.69 1.73 1.95 1.90 1.76 1.69 1.57 1.37 1.17
0.69 0.82 1.00 1.08 1.09 1.06 1.04 1.07 1.12 1.13 1.14 1.13 1.13 1.14 1.17 1.17 1.16 1.14 1.21 1.27 1.39 1.38 1.37 1.35 1.38 1.44 1.40 1.41 1.50 1.54 1.63 1.79 1.88 1.81 1.77 1.83 1.78 1.52
0.72 0.95 1.10 1.14 1.15 1.04 0.99 0.97 0.96 0.97 0.95 0.96 1.01 1.07 1.10 1.08 1.08 1.09 1.13 1.20 1.29 1.28 1.30 1.35 1.40 1.54 1.55 1.39 1.40 1.47 1.48 1.67 1.78 1.73 1.65 1.79 1.91 1.70
0.70 0.84 0.97 1.07 1.09 0.99 0.93 0.93 0.93 0.92 0.92 0.94 0.99 1.02 1.03 1.02 1.05 1.08 1.10 1.16 1.20 1.21 1.23 1.24 1.29 1.41 1.51 1.49 1.42 1.44 1.47 1.53 1.59 1.59 1.59 1.63 1.78 1.71
0.76 0.81 0.87 0.96 1.02 0.98 0.93 0.95 0.95 0.95 0.95 0.96 0.97 1.02 1.06 1.07 1.03 1.02 1.05 1.06 1.12 1.17 1.22 1.24 1.24 1.26 1.31 1.35 1.47 1.47 1.38 1.29 1.27 1.36 1.42 1.49 1.58 1.55
0.76 0.78 0.79 0.82 0.87 0.92 0.96 0.96 0.94 0.92 0.92 0.93 0.94 1.00 1.04 1.03 1.02 0.98 0.97 0.98 1.04 1.10 1.17 1.21 1.20 1.16 1.18 1.26 1.39 1.43 1.37 1.39 1.30 1.20 1.21 1.31 1.32 1.20
0.73 0.79 0.80 0.79 0.80 0.80 0.84 0.89 0.90 0.87 0.83 0.86 0.93 1.00 1.03 1.04 0.99 0.92 0.94 1.00 1.04 1.07 1.10 1.09 1.06 1.10 1.16 1.28 1.36 1.41 1.36 1.22 1.19 1.20 1.15 1.02 0.90 0.92
0.80 0.80 0.77 0.78 0.76 0.74 0.76 0.81 0.81 0.80 0.80 0.81 0.87 0.94 0.94 0.93 0.91 0.85 0.82 0.83 0.87 0.90 0.97 1.06 1.08 1.08 1.08 1.12 1.19 1.21 1.14 1.04 0.93 0.94 1.04 1.03 0.88 0.82